This is the latest recevied weather packets stored in our database for station/object SHLBYV-WX. If no packets are shown the sender has not sent any weather packets the latest 10 day(s).
| Time | Temp. | Humidity | Pressure | Rain* | Wind** | Luminosity | Snow |
|---|---|---|---|---|---|---|---|
| 1777176949 | 8.89° C | 90% | 986.3 hPa | 0 mm | - | - | - |
| 1777176076 | 8.89° C | 90% | 986.3 hPa | 0 mm | - | - | - |
| 1777175149 | 8.89° C | 83% | 986.7 hPa | 0 mm | - | - | - |
| 1777174265 | 9.44° C | 84% | 987 hPa | 0 mm | - | - | - |
| 1777173349 | 10° C | 84% | 987 hPa | 0 mm | - | - | - |
| 1777172470 | 10° C | 84% | 987 hPa | 0 mm | - | - | - |
| 1777171550 | 10° C | 84% | 985 hPa | 0 mm | - | - | - |
| 1777170664 | 10° C | 83% | 985 hPa | 0 mm | - | - | - |
| 1777169749 | 10° C | 83% | 986.6 hPa | 0 mm | - | - | - |
| 1777168869 | 10.56° C | 83% | 986.6 hPa | 0 mm | - | - | - |
| 1777167949 | 10.56° C | 81% | 986 hPa | 0 mm | - | - | - |
| 1777167064 | 10.56° C | 81% | 986 hPa | 0 mm | - | - | - |
| 1777166149 | 11.11° C | 81% | 986 hPa | 0 mm | - | - | - |
| 1777165270 | 11.67° C | 81% | 986 hPa | 0 mm | - | - | - |
| 1777164348 | 11.67° C | 75% | 985.9 hPa | 0 mm | - | - | - |
| 1777163464 | 12.22° C | 78% | 985.6 hPa | 0 mm | - | - | - |
| 1777162548 | 12.78° C | 78% | 985.7 hPa | 0 mm | - | - | - |
| 1777161679 | 13.89° C | 78% | 985.7 hPa | 0 mm | - | - | - |
| 1777160750 | 14.44° C | 69% | 984.3 hPa | 0 mm | - | - | - |
| 1777159861 | 13.89° C | 75% | 985 hPa | 0 mm | - | - | - |
| 1777158951 | 13.89° C | 75% | 985 hPa | 0 mm | - | - | - |
| 1777158066 | 14.44° C | 75% | 985 hPa | 0 mm | - | - | - |
| 1777157150 | 15° C | 70% | 984.9 hPa | 0 mm | - | - | - |
| 1777156261 | 15° C | 75% | 985 hPa | 0 mm | - | - | - |
| 1777155350 | 14.44° C | 75% | 984.9 hPa | 0 mm | - | - | - |
* Rain latest hour (hover to see other rain measurements)
** Current wind speed in m/s (hover to see current wind gust speed)